TimeCST,TemperatureF,Dew PointF,Humidity,Sea Level PressureIn,VisibilityMPH,Wind Direction,Wind SpeedMPH,Gust SpeedMPH,PrecipitationIn,Events,Conditions,WindDirDegrees,DateUTC
12:54 AM,39.9,27.0,60,30.05,10.0,SSW,9.2,-,N/A,,Clear,200,2013-01-08 06:54:00
1:54 AM,39.0,27.0,62,30.06,10.0,SSW,6.9,-,N/A,,Clear,210,2013-01-08 07:54:00
2:54 AM,39.0,27.0,62,30.06,10.0,SSW,5.8,-,N/A,,Clear,210,2013-01-08 08:54:00
3:54 AM,36.0,27.0,70,30.06,10.0,SSW,4.6,-,N/A,,Clear,200,2013-01-08 09:54:00
4:54 AM,37.0,28.0,70,30.04,10.0,South,9.2,-,N/A,,Clear,190,2013-01-08 10:54:00
5:54 AM,37.0,28.0,70,30.04,10.0,SSW,8.1,-,N/A,,Clear,200,2013-01-08 11:54:00
6:54 AM,37.9,28.0,68,30.03,10.0,SSW,11.5,-,N/A,,Clear,200,2013-01-08 12:54:00
7:54 AM,37.4,26.6,65,30.04,10.0,SSW,12.7,-,N/A,,Clear,200,2013-01-08 13:54:00
8:54 AM,39.9,27.0,60,30.04,10.0,South,11.5,-,N/A,,Clear,190,2013-01-08 14:54:00
9:54 AM,45.0,28.0,52,30.05,10.0,South,11.5,-,N/A,,Clear,190,2013-01-08 15:54:00
10:54 AM,48.9,28.9,46,30.04,10.0,SSW,10.4,-,N/A,,Clear,210,2013-01-08 16:54:00
11:54 AM,51.1,28.9,43,30.01,10.0,South,13.8,20.7,N/A,,Clear,190,2013-01-08 17:54:00
12:54 PM,53.1,28.0,38,29.96,10.0,South,16.1,-,N/A,,Clear,190,2013-01-08 18:54:00
1:54 PM,55.0,28.9,37,29.97,10.0,SW,12.7,-,N/A,,Clear,220,2013-01-08 19:54:00
2:54 PM,55.9,30.0,37,29.98,10.0,South,15.0,-,N/A,,Mostly Cloudy,180,2013-01-08 20:54:00
3:54 PM,55.0,28.9,37,29.98,10.0,SSW,16.1,-,N/A,,Clear,200,2013-01-08 21:54:00
4:54 PM,53.1,30.9,43,30.00,10.0,SSW,12.7,-,N/A,,Clear,210,2013-01-08 22:54:00
5:54 PM,52.0,32.0,47,30.03,10.0,SSW,11.5,-,N/A,,Clear,210,2013-01-08 23:54:00
6:54 PM,50.0,32.0,50,30.05,10.0,SW,9.2,-,N/A,,Clear,220,2013-01-09 00:54:00
7:54 PM,48.0,33.1,56,30.07,10.0,SSW,9.2,-,N/A,,Clear,210,2013-01-09 01:54:00
8:54 PM,48.0,33.1,56,30.09,10.0,WSW,4.6,-,N/A,,Clear,250,2013-01-09 02:54:00
9:54 PM,45.0,33.1,63,30.13,10.0,WSW,6.9,-,N/A,,Clear,250,2013-01-09 03:54:00
10:54 PM,42.1,32.0,67,30.15,10.0,SW,6.9,-,N/A,,Clear,220,2013-01-09 04:54:00
11:54 PM,41.0,30.9,67,30.20,10.0,WSW,3.5,-,N/A,,Clear,240,2013-01-09 05:54:00